Time,TemperatureF,DewpointF,PressureIn,WindDirection,WindDirectionDegrees,WindSpeedMPH,WindSpeedGustMPH,Humidity,HourlyPrecipIn,Conditions,Clouds,dailyrainin,SolarRadiationWatts/m^2,SoftwareType,DateUTC
2013-02-05 00:00:00,46.7,40.5,29.97,NE,48,0.0,0.0,79,0.00,,,0.00,0.00,VWS V14.01,2013-02-05 08:00:00,
2013-02-05 00:05:00,46.7,40.5,29.97,NE,49,0.0,0.0,79,0.00,,,0.00,0.00,VWS V14.01,2013-02-05 08:05:00,
2013-02-05 00:10:00,46.7,40.5,29.97,NE,49,0.0,0.0,79,0.00,,,0.00,0.00,VWS V14.01,2013-02-05 08:10:00,
2013-02-05 00:15:00,46.5,40.3,29.97,NE,48,0.0,0.0,79,0.00,,,0.00,0.00,VWS V14.01,2013-02-05 08:15:00,
2013-02-05 00:20:00,46.2,40.1,29.97,NE,48,0.0,0.0,79,0.00,,,0.00,0.00,VWS V14.01,2013-02-05 08:20:00,
2013-02-05 00:25:00,46.0,39.9,29.97,NE,48,0.0,0.0,79,0.00,,,0.00,0.00,VWS V14.01,2013-02-05 08:25:00,
2013-02-05 00:30:00,45.7,39.6,29.96,NE,48,0.0,0.0,79,0.00,,,0.00,0.00,VWS V14.01,2013-02-05 08:30:00,
2013-02-05 00:35:00,45.2,39.1,29.96,NE,48,0.0,0.0,79,0.00,,,0.00,0.00,VWS V14.01,2013-02-05 08:35:00,
2013-02-05 00:40:00,44.9,39.1,29.96,NE,48,0.0,0.0,80,0.00,,,0.00,0.00,VWS V14.01,2013-02-05 08:40:00,
2013-02-05 00:45:00,44.8,39.0,29.96,NE,48,0.0,0.0,80,0.00,,,0.00,0.00,VWS V14.01,2013-02-05 08:45:00,
2013-02-05 00:50:00,44.8,39.0,29.96,NE,48,0.0,0.0,80,0.00,,,0.00,0.00,VWS V14.01,2013-02-05 08:50:00,
2013-02-05 00:55:00,44.6,38.8,29.96,NE,48,0.0,0.0,80,0.00,,,0.00,0.00,VWS V14.01,2013-02-05 08:55:00,
2013-02-05 01:00:00,44.5,38.7,29.96,NE,48,0.0,0.0,80,0.00,,,0.00,0.00,VWS V14.01,2013-02-05 09:00:00,
2013-02-05 01:05:00,44.6,38.8,29.96,NE,48,0.0,0.0,80,0.00,,,0.00,0.00,VWS V14.01,2013-02-05 09:05:00,
2013-02-05 01:10:00,44.8,39.0,29.96,NE,48,0.0,0.0,80,0.00,,,0.00,0.00,VWS V14.01,2013-02-05 09:10:00,
2013-02-05 01:15:00,44.8,39.0,29.96,NE,48,0.0,0.0,80,0.00,,,0.00,0.00,VWS V14.01,2013-02-05 09:15:00,
2013-02-05 01:20:00,44.8,39.0,29.96,NE,48,0.0,0.0,80,0.00,,,0.00,0.00,VWS V14.01,2013-02-05 09:20:00,
2013-02-05 01:25:00,44.5,38.7,29.96,NE,47,0.0,0.0,80,0.00,,,0.00,0.00,VWS V14.01,2013-02-05 09:25:00,
2013-02-05 01:30:00,44.1,38.3,29.97,NE,48,0.0,0.0,80,0.00,,,0.00,0.00,VWS V14.01,2013-02-05 09:30:00,
2013-02-05 01:35:00,43.8,38.0,29.97,NE,47,0.0,0.0,80,0.00,,,0.00,0.00,VWS V14.01,2013-02-05 09:35:00,
2013-02-05 01:40:00,43.5,37.8,29.97,NE,47,0.0,0.0,80,0.00,,,0.00,0.00,VWS V14.01,2013-02-05 09:40:00,
2013-02-05 01:45:00,43.5,37.8,29.97,NE,47,0.0,0.0,80,0.00,,,0.00,0.00,VWS V14.01,2013-02-05 09:45:00,
2013-02-05 01:50:00,43.3,37.6,29.97,NE,47,0.0,0.0,80,0.00,,,0.00,0.00,VWS V14.01,2013-02-05 09:50:00,
2013-02-05 01:55:00,43.3,37.9,29.97,NE,47,0.0,0.0,81,0.00,,,0.00,0.00,VWS V14.01,2013-02-05 09:55:00,
2013-02-05 02:00:00,43.5,38.1,29.97,NE,47,0.0,0.0,81,0.00,,,0.00,0.00,VWS V14.01,2013-02-05 10:00:00,
2013-02-05 02:05:00,43.6,38.2,29.97,NE,47,0.0,0.0,81,0.00,,,0.00,0.00,VWS V14.01,2013-02-05 10:05:00,
2013-02-05 02:10:00,43.8,38.4,29.97,NE,47,0.0,0.0,81,0.00,,,0.00,0.00,VWS V14.01,2013-02-05 10:10:00,
2013-02-05 02:15:00,43.8,38.4,29.96,NE,47,0.0,0.0,81,0.00,,,0.00,0.00,VWS V14.01,2013-02-05 10:15:00,
2013-02-05 02:20:00,43.6,38.2,29.96,NE,47,0.0,0.0,81,0.00,,,0.00,0.00,VWS V14.01,2013-02-05 10:20:00,
2013-02-05 02:25:00,43.5,38.1,29.96,NE,45,0.0,0.0,81,0.00,,,0.00,0.00,VWS V14.01,2013-02-05 10:25:00,
2013-02-05 02:30:00,43.5,38.1,29.96,NE,47,0.0,0.0,81,0.00,,,0.00,0.00,VWS V14.01,2013-02-05 10:30:00,
2013-02-05 02:35:00,43.3,37.9,29.96,NE,47,0.0,0.0,81,0.00,,,0.00,0.00,VWS V14.01,2013-02-05 10:35:00,
2013-02-05 02:40:00,43.3,37.9,29.96,NE,47,0.0,0.0,81,0.00,,,0.00,0.00,VWS V14.01,2013-02-05 10:40:00,
2013-02-05 02:45:00,43.3,38.2,29.96,NE,47,0.0,0.0,82,0.00,,,0.00,0.00,VWS V14.01,2013-02-05 10:45:00,
2013-02-05 02:50:00,43.3,38.2,29.96,NE,47,0.0,0.0,82,0.00,,,0.00,0.00,VWS V14.01,2013-02-05 10:50:00,
2013-02-05 02:55:00,43.3,38.2,29.96,NE,47,0.0,0.0,82,0.00,,,0.00,0.00,VWS V14.01,2013-02-05 10:55:00,
2013-02-05 03:00:00,43.5,38.4,29.95,NE,45,2.0,2.0,82,0.00,,,0.00,0.00,VWS V14.01,2013-02-05 11:00:00,
2013-02-05 03:05:00,43.5,38.4,29.95,NE,45,1.0,2.0,82,0.00,,,0.00,0.00,VWS V14.01,2013-02-05 11:05:00,
2013-02-05 03:10:00,43.5,38.4,29.95,NE,45,1.0,2.0,82,0.00,,,0.00,0.00,VWS V14.01,2013-02-05 11:10:00,
2013-02-05 03:15:00,43.3,38.2,29.94,NE,44,0.0,1.0,82,0.00,,,0.00,0.00,VWS V14.01,2013-02-05 11:15:00,
2013-02-05 03:20:00,43.3,38.2,29.94,NE,45,0.0,0.0,82,0.00,,,0.00,0.00,VWS V14.01,2013-02-05 11:20:00,
2013-02-05 03:25:00,43.3,38.2,29.94,NE,44,0.0,0.0,82,0.00,,,0.00,0.00,VWS V14.01,2013-02-05 11:25:00,
2013-02-05 03:30:00,43.3,38.2,29.94,NE,45,0.0,0.0,82,0.00,,,0.00,0.00,VWS V14.01,2013-02-05 11:30:00,
2013-02-05 03:35:00,43.5,38.7,29.94,NE,45,0.0,0.0,83,0.00,,,0.00,0.00,VWS V14.01,2013-02-05 11:35:00,
2013-02-05 03:40:00,43.6,38.8,29.94,NE,45,0.0,0.0,83,0.00,,,0.00,0.00,VWS V14.01,2013-02-05 11:40:00,
2013-02-05 03:45:00,43.8,39.0,29.94,NE,45,0.0,0.0,83,0.00,,,0.00,0.00,VWS V14.01,2013-02-05 11:45:00,
2013-02-05 03:50:00,43.8,39.0,29.94,NE,45,0.0,0.0,83,0.00,,,0.00,0.00,VWS V14.01,2013-02-05 11:50:00,
2013-02-05 03:55:00,43.8,39.0,29.94,NE,45,0.0,0.0,83,0.00,,,0.00,0.00,VWS V14.01,2013-02-05 11:55:00,
2013-02-05 04:00:00,43.9,39.1,29.94,NE,45,0.0,0.0,83,0.00,,,0.00,0.00,VWS V14.01,2013-02-05 12:00:00,
2013-02-05 04:05:00,43.9,39.1,29.94,NE,45,0.0,0.0,83,0.00,,,0.00,0.00,VWS V14.01,2013-02-05 12:05:00,
2013-02-05 04:10:00,43.6,38.5,29.94,NE,45,0.0,0.0,82,0.00,,,0.00,0.00,VWS V14.01,2013-02-05 12:10:00,
2013-02-05 04:15:00,43.8,39.0,29.95,NE,45,0.0,0.0,83,0.00,,,0.00,0.00,VWS V14.01,2013-02-05 12:15:00,
2013-02-05 04:20:00,43.8,39.0,29.95,NE,45,0.0,0.0,83,0.00,,,0.00,0.00,VWS V14.01,2013-02-05 12:20:00,
2013-02-05 04:25:00,43.6,38.8,29.95,NE,45,0.0,0.0,83,0.00,,,0.00,0.00,VWS V14.01,2013-02-05 12:25:00,
2013-02-05 04:30:00,43.6,38.8,29.94,NE,45,0.0,0.0,83,0.00,,,0.00,0.00,VWS V14.01,2013-02-05 12:30:00,
2013-02-05 04:35:00,43.5,38.7,29.94,NE,44,0.0,0.0,83,0.00,,,0.00,0.00,VWS V14.01,2013-02-05 12:35:00,
2013-02-05 04:40:00,43.3,38.5,29.94,NE,45,0.0,0.0,83,0.00,,,0.00,0.00,VWS V14.01,2013-02-05 12:40:00,
2013-02-05 04:45:00,43.2,38.4,29.94,NE,44,0.0,0.0,83,0.00,,,0.00,0.00,VWS V14.01,2013-02-05 12:45:00,
2013-02-05 04:50:00,42.9,38.1,29.94,NE,44,0.0,0.0,83,0.00,,,0.00,0.00,VWS V14.01,2013-02-05 12:50:00,
2013-02-05 04:55:00,42.8,38.0,29.94,NE,44,0.0,0.0,83,0.00,,,0.00,0.00,VWS V14.01,2013-02-05 12:55:00,
2013-02-05 05:00:00,42.9,38.1,29.94,NE,44,0.0,0.0,83,0.00,,,0.00,0.00,VWS V14.01,2013-02-05 13:00:00,
2013-02-05 05:05:00,42.6,37.8,29.94,NE,45,0.0,0.0,83,0.00,,,0.00,0.00,VWS V14.01,2013-02-05 13:05:00,
2013-02-05 05:10:00,42.3,37.5,29.94,NE,44,0.0,0.0,83,0.00,,,0.00,0.00,VWS V14.01,2013-02-05 13:10:00,
2013-02-05 05:15:00,42.2,37.4,29.94,NE,44,0.0,0.0,83,0.00,,,0.00,0.00,VWS V14.01,2013-02-05 13:15:00,
2013-02-05 05:20:00,41.9,37.1,29.94,NE,44,0.0,0.0,83,0.00,,,0.00,0.00,VWS V14.01,2013-02-05 13:20:00,
2013-02-05 05:25:00,41.9,37.1,29.94,NE,45,0.0,0.0,83,0.00,,,0.00,0.00,VWS V14.01,2013-02-05 13:25:00,
2013-02-05 05:30:00,41.8,37.0,29.94,NE,44,0.0,0.0,83,0.00,,,0.00,0.00,VWS V14.01,2013-02-05 13:30:00,
2013-02-05 05:35:00,41.6,36.8,29.94,NE,45,0.0,0.0,83,0.00,,,0.00,0.00,VWS V14.01,2013-02-05 13:35:00,
2013-02-05 05:40:00,41.5,36.7,29.94,NE,44,0.0,0.0,83,0.00,,,0.00,0.00,VWS V14.01,2013-02-05 13:40:00,
2013-02-05 05:45:00,41.2,36.4,29.95,NE,45,0.0,0.0,83,0.00,,,0.00,0.00,VWS V14.01,2013-02-05 13:45:00,
2013-02-05 05:50:00,41.1,36.3,29.95,NE,44,0.0,0.0,83,0.00,,,0.00,0.00,VWS V14.01,2013-02-05 13:50:00,
2013-02-05 05:55:00,40.9,36.1,29.95,NE,44,0.0,0.0,83,0.00,,,0.00,0.00,VWS V14.01,2013-02-05 13:55:00,
2013-02-05 06:00:00,40.8,36.0,29.95,NE,44,0.0,0.0,83,0.00,,,0.00,0.00,VWS V14.01,2013-02-05 14:00:00,
2013-02-05 06:05:00,40.8,36.3,29.95,NE,44,0.0,0.0,84,0.00,,,0.00,0.00,VWS V14.01,2013-02-05 14:05:00,
2013-02-05 06:10:00,40.8,36.3,29.95,NE,44,0.0,0.0,84,0.00,,,0.00,0.00,VWS V14.01,2013-02-05 14:10:00,
2013-02-05 06:15:00,40.8,36.3,29.95,NE,44,0.0,0.0,84,0.00,,,0.00,0.00,VWS V14.01,2013-02-05 14:15:00,
2013-02-05 06:20:00,40.6,36.2,29.95,NE,44,0.0,0.0,84,0.00,,,0.00,0.00,VWS V14.01,2013-02-05 14:20:00,
2013-02-05 06:25:00,40.8,36.3,29.95,NE,44,0.0,0.0,84,0.00,,,0.00,0.00,VWS V14.01,2013-02-05 14:25:00,
2013-02-05 06:30:00,40.8,36.3,29.95,NE,44,0.0,0.0,84,0.00,,,0.00,0.00,VWS V14.01,2013-02-05 14:30:00,
2013-02-05 06:35:00,40.8,36.3,29.95,NE,44,0.0,0.0,84,0.00,,,0.00,0.00,VWS V14.01,2013-02-05 14:35:00,
2013-02-05 06:40:00,40.8,36.3,29.95,NE,44,1.0,2.0,84,0.00,,,0.00,0.00,VWS V14.01,2013-02-05 14:40:00,
2013-02-05 06:45:00,40.9,36.5,29.94,NE,44,0.0,0.0,84,0.00,,,0.00,0.00,VWS V14.01,2013-02-05 14:45:00,
2013-02-05 06:50:00,40.8,36.3,29.94,NE,44,0.0,1.0,84,0.00,,,0.00,0.00,VWS V14.01,2013-02-05 14:50:00,
2013-02-05 06:55:00,40.9,36.5,29.94,NE,44,0.0,0.0,84,0.00,,,0.00,0.00,VWS V14.01,2013-02-05 14:55:00,
2013-02-05 07:00:00,41.1,36.6,29.95,NE,44,0.0,0.0,84,0.00,,,0.00,0.00,VWS V14.01,2013-02-05 15:00:00,
2013-02-05 07:05:00,41.1,36.6,29.95,NE,44,0.0,0.0,84,0.00,,,0.00,0.00,VWS V14.01,2013-02-05 15:05:00,
2013-02-05 07:10:00,41.1,36.6,29.95,NE,44,0.0,0.0,84,0.00,,,0.00,11.00,VWS V14.01,2013-02-05 15:10:00,
2013-02-05 07:15:00,41.2,37.0,29.95,NE,44,0.0,0.0,85,0.00,,,0.00,16.00,VWS V14.01,2013-02-05 15:15:00,
2013-02-05 07:20:00,41.3,37.1,29.95,NE,44,0.0,0.0,85,0.00,,,0.00,25.00,VWS V14.01,2013-02-05 15:20:00,
2013-02-05 07:25:00,41.5,37.0,29.95,NE,44,0.0,0.0,84,0.00,,,0.00,33.00,VWS V14.01,2013-02-05 15:25:00,
2013-02-05 07:30:00,41.5,37.0,29.95,NE,44,0.0,0.0,84,0.00,,,0.00,46.00,VWS V14.01,2013-02-05 15:30:00,
2013-02-05 07:35:00,41.8,37.3,29.95,NE,44,0.0,0.0,84,0.00,,,0.00,60.00,VWS V14.01,2013-02-05 15:35:00,
2013-02-05 07:40:00,42.3,37.8,29.95,NE,44,0.0,0.0,84,0.00,,,0.00,84.00,VWS V14.01,2013-02-05 15:40:00,
2013-02-05 07:45:00,42.6,38.1,29.95,NE,44,0.0,0.0,84,0.00,,,0.00,97.00,VWS V14.01,2013-02-05 15:45:00,
2013-02-05 07:50:00,42.8,38.3,29.95,NE,44,0.0,0.0,84,0.00,,,0.00,114.00,VWS V14.01,2013-02-05 15:50:00,
2013-02-05 07:55:00,42.9,38.4,29.95,NE,44,0.0,0.0,84,0.00,,,0.00,123.00,VWS V14.01,2013-02-05 15:55:00,
2013-02-05 08:00:00,43.3,38.8,29.95,NE,44,1.0,2.0,84,0.00,,,0.00,137.00,VWS V14.01,2013-02-05 16:00:00,
2013-02-05 08:05:00,43.9,39.4,29.95,NE,45,0.0,2.0,84,0.00,,,0.00,153.00,VWS V14.01,2013-02-05 16:05:00,
2013-02-05 08:10:00,44.5,40.0,29.95,NE,44,0.0,2.0,84,0.00,,,0.00,167.00,VWS V14.01,2013-02-05 16:10:00,
2013-02-05 08:15:00,45.1,40.6,29.95,NE,44,0.0,0.0,84,0.00,,,0.00,181.00,VWS V14.01,2013-02-05 16:15:00,
2013-02-05 08:20:00,45.5,41.0,29.95,NE,44,0.0,1.0,84,0.00,,,0.00,199.00,VWS V14.01,2013-02-05 16:20:00,
2013-02-05 08:25:00,46.4,41.8,29.95,NE,44,0.0,2.0,84,0.00,,,0.00,213.00,VWS V14.01,2013-02-05 16:25:00,
2013-02-05 08:30:00,47.3,42.7,29.95,NE,44,0.0,0.0,84,0.00,,,0.00,222.00,VWS V14.01,2013-02-05 16:30:00,
2013-02-05 08:35:00,48.2,43.6,29.95,NE,44,0.0,0.0,84,0.00,,,0.00,243.00,VWS V14.01,2013-02-05 16:35:00,
2013-02-05 08:40:00,48.6,43.7,29.95,NE,45,0.0,2.0,83,0.00,,,0.00,269.00,VWS V14.01,2013-02-05 16:40:00,
2013-02-05 08:45:00,49.6,44.7,29.95,NE,45,0.0,2.0,83,0.00,,,0.00,283.00,VWS V14.01,2013-02-05 16:45:00,
2013-02-05 08:50:00,50.2,44.6,29.95,NE,45,0.0,0.0,81,0.00,,,0.00,297.00,VWS V14.01,2013-02-05 16:50:00,
2013-02-05 08:55:00,50.7,45.1,29.95,NE,45,0.0,0.0,81,0.00,,,0.00,310.00,VWS V14.01,2013-02-05 16:55:00,
2013-02-05 09:00:00,51.1,44.8,29.96,NE,45,0.0,0.0,79,0.00,,,0.00,326.00,VWS V14.01,2013-02-05 17:00:00,
2013-02-05 09:05:00,51.7,45.1,29.96,NE,45,0.0,0.0,78,0.00,,,0.00,336.00,VWS V14.01,2013-02-05 17:05:00,
2013-02-05 09:10:00,52.6,45.6,29.96,NE,45,0.0,0.0,77,0.00,,,0.00,359.00,VWS V14.01,2013-02-05 17:10:00,
2013-02-05 09:15:00,53.6,46.2,29.96,NE,45,1.0,1.0,76,0.00,,,0.00,373.00,VWS V14.01,2013-02-05 17:15:00,
2013-02-05 09:20:00,54.2,46.1,29.96,NE,45,0.0,1.0,74,0.00,,,0.00,384.00,VWS V14.01,2013-02-05 17:20:00,
2013-02-05 09:25:00,54.7,45.9,29.96,NE,48,0.0,4.0,72,0.00,,,0.00,401.00,VWS V14.01,2013-02-05 17:25:00,
2013-02-05 09:30:00,55.1,45.9,29.96,SE,127,1.0,6.0,71,0.00,,,0.00,413.00,VWS V14.01,2013-02-05 17:30:00,
2013-02-05 09:35:00,55.6,46.0,29.96,SE,127,2.0,6.0,70,0.00,,,0.00,426.00,VWS V14.01,2013-02-05 17:35:00,
2013-02-05 09:40:00,56.0,45.6,29.96,ESE,120,1.0,6.0,68,0.00,,,0.00,440.00,VWS V14.01,2013-02-05 17:40:00,
2013-02-05 09:45:00,56.6,45.8,29.96,ESE,120,2.0,6.0,67,0.00,,,0.00,450.00,VWS V14.01,2013-02-05 17:45:00,
2013-02-05 09:50:00,56.7,44.7,29.96,SE,134,0.0,7.0,64,0.00,,,0.00,461.00,VWS V14.01,2013-02-05 17:50:00,
2013-02-05 09:55:00,57.5,45.4,29.96,SE,143,2.0,7.0,64,0.00,,,0.00,473.00,VWS V14.01,2013-02-05 17:55:00,
2013-02-05 10:00:00,58.1,45.2,29.96,SSE,165,2.0,6.0,62,0.00,,,0.00,477.00,VWS V14.01,2013-02-05 18:00:00,
2013-02-05 10:05:00,58.0,44.2,29.96,SSE,162,2.0,6.0,60,0.00,,,0.00,447.00,VWS V14.01,2013-02-05 18:05:00,
2013-02-05 10:10:00,58.1,44.3,29.96,SSE,155,2.0,6.0,60,0.00,,,0.00,507.00,VWS V14.01,2013-02-05 18:10:00,
2013-02-05 10:15:00,58.3,44.0,29.96,SSE,158,0.0,6.0,59,0.00,,,0.00,503.00,VWS V14.01,2013-02-05 18:15:00,
2013-02-05 10:20:00,58.9,44.6,29.96,SSE,157,0.0,2.0,59,0.00,,,0.00,523.00,VWS V14.01,2013-02-05 18:20:00,
2013-02-05 10:25:00,58.7,44.0,29.96,South,169,4.0,7.0,58,0.00,,,0.00,526.00,VWS V14.01,2013-02-05 18:25:00,
2013-02-05 10:30:00,58.6,43.9,29.96,South,171,0.0,6.0,58,0.00,,,0.00,538.00,VWS V14.01,2013-02-05 18:30:00,
2013-02-05 10:35:00,59.0,44.3,29.96,West,277,0.0,4.0,58,0.00,,,0.00,547.00,VWS V14.01,2013-02-05 18:35:00,
2013-02-05 10:40:00,59.5,45.2,29.96,West,280,0.0,2.0,59,0.00,,,0.00,554.00,VWS V14.01,2013-02-05 18:40:00,
2013-02-05 10:45:00,59.2,44.0,29.97,West,280,0.0,4.0,57,0.00,,,0.00,563.00,VWS V14.01,2013-02-05 18:45:00,
2013-02-05 10:50:00,59.0,43.8,29.97,WSW,250,2.0,6.0,57,0.00,,,0.00,567.00,VWS V14.01,2013-02-05 18:50:00,
2013-02-05 10:55:00,58.9,43.7,29.97,NW,306,0.0,6.0,57,0.00,,,0.00,570.00,VWS V14.01,2013-02-05 18:55:00,
2013-02-05 11:00:00,59.6,44.8,29.96,NW,304,6.0,6.0,58,0.00,,,0.00,577.00,VWS V14.01,2013-02-05 19:00:00,
2013-02-05 11:05:00,59.3,43.6,29.96,WNW,295,1.0,8.0,56,0.00,,,0.00,582.00,VWS V14.01,2013-02-05 19:05:00,
2013-02-05 11:10:00,59.3,44.1,29.96,WNW,299,4.0,7.0,57,0.00,,,0.00,589.00,VWS V14.01,2013-02-05 19:10:00,
2013-02-05 11:15:00,59.5,44.3,29.96,WNW,299,2.0,4.0,57,0.00,,,0.00,593.00,VWS V14.01,2013-02-05 19:15:00,
2013-02-05 11:20:00,59.9,43.7,29.96,WNW,295,8.0,8.0,55,0.00,,,0.00,598.00,VWS V14.01,2013-02-05 19:20:00,
2013-02-05 11:25:00,59.9,43.7,29.96,West,272,4.0,6.0,55,0.00,,,0.00,623.00,VWS V14.01,2013-02-05 19:25:00,
2013-02-05 11:30:00,60.4,44.7,29.95,WNW,296,1.0,4.0,56,0.00,,,0.00,625.00,VWS V14.01,2013-02-05 19:30:00,
2013-02-05 11:35:00,61.0,44.7,29.95,NW,304,4.0,7.0,55,0.00,,,0.00,628.00,VWS V14.01,2013-02-05 19:35:00,
2013-02-05 11:40:00,61.3,45.0,29.95,NW,305,7.0,9.0,55,0.00,,,0.00,632.00,VWS V14.01,2013-02-05 19:40:00,
2013-02-05 11:45:00,61.0,45.2,29.95,NW,325,2.0,10.0,56,0.00,,,0.00,600.00,VWS V14.01,2013-02-05 19:45:00,
2013-02-05 11:50:00,60.4,45.1,29.95,WNW,294,2.0,9.0,57,0.00,,,0.00,581.00,VWS V14.01,2013-02-05 19:50:00,
2013-02-05 11:55:00,60.7,45.8,29.95,NW,320,1.0,8.0,58,0.00,,,0.00,619.00,VWS V14.01,2013-02-05 19:55:00,
2013-02-05 12:00:00,60.9,46.0,29.94,WNW,292,7.0,10.0,58,0.00,,,0.00,688.00,VWS V14.01,2013-02-05 20:00:00,
2013-02-05 12:05:00,60.7,45.4,29.94,NW,308,6.0,10.0,57,0.00,,,0.00,691.00,VWS V14.01,2013-02-05 20:05:00,
2013-02-05 12:10:00,60.2,45.4,29.94,NW,311,8.0,10.0,58,0.00,,,0.00,611.00,VWS V14.01,2013-02-05 20:10:00,
2013-02-05 12:15:00,60.2,45.4,29.93,NW,326,6.0,13.0,58,0.00,,,0.00,465.00,VWS V14.01,2013-02-05 20:15:00,
2013-02-05 12:20:00,60.1,45.3,29.93,WNW,299,8.0,10.0,58,0.00,,,0.00,426.00,VWS V14.01,2013-02-05 20:20:00,
2013-02-05 12:25:00,59.9,45.5,29.93,NW,316,0.0,10.0,59,0.00,,,0.00,357.00,VWS V14.01,2013-02-05 20:25:00,
2013-02-05 12:30:00,59.9,45.1,29.93,NW,315,4.0,9.0,58,0.00,,,0.00,459.00,VWS V14.01,2013-02-05 20:30:00,
2013-02-05 12:35:00,60.1,45.7,29.93,NW,326,8.0,10.0,59,0.00,,,0.00,459.00,VWS V14.01,2013-02-05 20:35:00,
2013-02-05 12:40:00,60.2,45.4,29.93,NNW,340,6.0,10.0,58,0.00,,,0.00,535.00,VWS V14.01,2013-02-05 20:40:00,
2013-02-05 12:45:00,60.2,45.4,29.93,NW,315,6.0,10.0,58,0.00,,,0.00,452.00,VWS V14.01,2013-02-05 20:45:00,
2013-02-05 12:50:00,60.9,45.6,29.93,NW,325,2.0,6.0,57,0.00,,,0.00,412.00,VWS V14.01,2013-02-05 20:50:00,
2013-02-05 12:55:00,61.6,46.2,29.93,North,350,0.0,7.0,57,0.00,,,0.00,477.00,VWS V14.01,2013-02-05 20:55:00,
2013-02-05 13:00:00,61.6,45.3,29.92,NNW,347,1.0,9.0,55,0.00,,,0.00,399.00,VWS V14.01,2013-02-05 21:00:00,
2013-02-05 13:05:00,61.8,45.5,29.92,North,357,6.0,6.0,55,0.00,,,0.00,498.00,VWS V14.01,2013-02-05 21:05:00,
2013-02-05 13:10:00,62.3,46.0,29.92,North,349,4.0,7.0,55,0.00,,,0.00,347.00,VWS V14.01,2013-02-05 21:10:00,
2013-02-05 13:15:00,61.8,45.5,29.92,NNE,32,6.0,6.0,55,0.00,,,0.00,306.00,VWS V14.01,2013-02-05 21:15:00,
2013-02-05 13:20:00,61.2,44.9,29.92,NNW,329,4.0,7.0,55,0.00,,,0.00,296.00,VWS V14.01,2013-02-05 21:20:00,
2013-02-05 13:25:00,60.9,45.6,29.92,NW,326,1.0,6.0,57,0.00,,,0.00,320.00,VWS V14.01,2013-02-05 21:25:00,
2013-02-05 13:30:00,60.7,44.9,29.91,NW,325,4.0,9.0,56,0.00,,,0.00,350.00,VWS V14.01,2013-02-05 21:30:00,
2013-02-05 13:35:00,60.9,45.1,29.91,NNW,333,2.0,7.0,56,0.00,,,0.00,403.00,VWS V14.01,2013-02-05 21:35:00,
2013-02-05 13:40:00,61.3,45.0,29.91,NW,326,4.0,6.0,55,0.00,,,0.00,406.00,VWS V14.01,2013-02-05 21:40:00,
2013-02-05 13:45:00,61.5,44.7,29.91,NW,305,2.0,6.0,54,0.00,,,0.00,338.00,VWS V14.01,2013-02-05 21:45:00,
2013-02-05 13:50:00,61.5,44.2,29.91,NNW,329,2.0,6.0,53,0.00,,,0.00,310.00,VWS V14.01,2013-02-05 21:50:00,
2013-02-05 13:55:00,61.8,45.0,29.91,NNW,330,4.0,7.0,54,0.00,,,0.00,310.00,VWS V14.01,2013-02-05 21:55:00,
2013-02-05 14:00:00,61.6,44.3,29.90,NW,309,4.0,7.0,53,0.00,,,0.00,283.00,VWS V14.01,2013-02-05 22:00:00,
2013-02-05 14:05:00,61.5,44.2,29.90,NW,323,2.0,6.0,53,0.00,,,0.00,253.00,VWS V14.01,2013-02-05 22:05:00,
2013-02-05 14:10:00,61.5,44.2,29.90,NW,323,0.0,0.0,53,0.00,,,0.00,232.00,VWS V14.01,2013-02-05 22:10:00,
2013-02-05 14:15:00,61.5,44.7,29.90,NW,326,2.0,6.0,54,0.00,,,0.00,262.00,VWS V14.01,2013-02-05 22:15:00,
2013-02-05 14:20:00,61.3,44.0,29.90,NW,323,2.0,4.0,53,0.00,,,0.00,243.00,VWS V14.01,2013-02-05 22:20:00,
2013-02-05 14:25:00,61.8,44.5,29.90,NW,323,0.0,1.0,53,0.00,,,0.00,304.00,VWS V14.01,2013-02-05 22:25:00,
2013-02-05 14:30:00,61.8,44.5,29.90,NW,325,2.0,4.0,53,0.00,,,0.00,271.00,VWS V14.01,2013-02-05 22:30:00,
2013-02-05 14:35:00,61.6,43.8,29.90,NW,320,1.0,2.0,52,0.00,,,0.00,236.00,VWS V14.01,2013-02-05 22:35:00,
2013-02-05 14:40:00,61.6,43.3,29.90,NNW,333,6.0,6.0,51,0.00,,,0.00,236.00,VWS V14.01,2013-02-05 22:40:00,
2013-02-05 14:45:00,61.8,43.5,29.90,NW,325,4.0,8.0,51,0.00,,,0.00,252.00,VWS V14.01,2013-02-05 22:45:00,
2013-02-05 14:50:00,61.8,43.5,29.90,NW,315,2.0,7.0,51,0.00,,,0.00,259.00,VWS V14.01,2013-02-05 22:50:00,
2013-02-05 14:55:00,62.0,43.7,29.90,WNW,298,9.0,11.0,51,0.00,,,0.00,225.00,VWS V14.01,2013-02-05 22:55:00,
2013-02-05 15:00:00,61.8,44.0,29.90,WNW,298,6.0,9.0,52,0.00,,,0.00,213.00,VWS V14.01,2013-02-05 23:00:00,
2013-02-05 15:05:00,61.6,44.3,29.90,WNW,302,10.0,10.0,53,0.00,,,0.00,176.00,VWS V14.01,2013-02-05 23:05:00,
2013-02-05 15:10:00,61.3,44.5,29.90,NNW,335,6.0,10.0,54,0.00,,,0.00,172.00,VWS V14.01,2013-02-05 23:10:00,
2013-02-05 15:15:00,61.0,44.7,29.90,NW,319,8.0,9.0,55,0.00,,,0.00,176.00,VWS V14.01,2013-02-05 23:15:00,
2013-02-05 15:20:00,60.9,45.1,29.90,NW,306,7.0,9.0,56,0.00,,,0.00,167.00,VWS V14.01,2013-02-05 23:20:00,
2013-02-05 15:25:00,60.5,45.2,29.90,NW,311,6.0,11.0,57,0.00,,,0.00,155.00,VWS V14.01,2013-02-05 23:25:00,
2013-02-05 15:30:00,60.4,45.6,29.90,WNW,295,6.0,10.0,58,0.00,,,0.00,141.00,VWS V14.01,2013-02-05 23:30:00,
2013-02-05 15:35:00,60.2,45.8,29.90,NW,311,8.0,10.0,59,0.00,,,0.00,141.00,VWS V14.01,2013-02-05 23:35:00,
2013-02-05 15:40:00,60.2,45.8,29.90,WNW,302,2.0,10.0,59,0.00,,,0.00,141.00,VWS V14.01,2013-02-05 23:40:00,
2013-02-05 15:45:00,60.2,45.8,29.90,WNW,296,2.0,10.0,59,0.00,,,0.00,143.00,VWS V14.01,2013-02-05 23:45:00,
2013-02-05 15:50:00,60.2,45.4,29.90,NNW,332,2.0,9.0,58,0.00,,,0.00,132.00,VWS V14.01,2013-02-05 23:50:00,
2013-02-05 15:55:00,60.2,45.8,29.90,WNW,287,9.0,9.0,59,0.00,,,0.00,125.00,VWS V14.01,2013-02-05 23:55:00,
2013-02-05 16:00:00,60.1,45.7,29.90,WNW,285,10.0,11.0,59,0.00,,,0.00,106.00,VWS V14.01,2013-02-06 00:00:00,
2013-02-05 16:05:00,59.6,46.2,29.90,NW,305,6.0,14.0,61,0.00,,,0.00,99.00,VWS V14.01,2013-02-06 00:05:00,
2013-02-05 16:10:00,59.5,46.5,29.90,WNW,302,14.0,14.0,62,0.00,,,0.00,99.00,VWS V14.01,2013-02-06 00:10:00,
2013-02-05 16:15:00,59.2,46.2,29.90,WNW,301,7.0,11.0,62,0.00,,,0.00,84.00,VWS V14.01,2013-02-06 00:15:00,
2013-02-05 16:20:00,59.2,46.6,29.90,WNW,302,8.0,13.0,63,0.00,,,0.00,76.00,VWS V14.01,2013-02-06 00:20:00,
2013-02-05 16:25:00,59.0,46.4,29.90,WNW,292,10.0,13.0,63,0.00,,,0.00,67.00,VWS V14.01,2013-02-06 00:25:00,
2013-02-05 16:30:00,58.9,46.3,29.90,NW,313,4.0,10.0,63,0.00,,,0.00,60.00,VWS V14.01,2013-02-06 00:30:00,
2013-02-05 16:35:00,58.7,46.6,29.90,NNW,337,6.0,9.0,64,0.00,,,0.00,53.00,VWS V14.01,2013-02-06 00:35:00,
2013-02-05 16:40:00,58.4,46.3,29.90,NNW,347,4.0,7.0,64,0.00,,,0.00,46.00,VWS V14.01,2013-02-06 00:40:00,
2013-02-05 16:45:00,58.1,46.4,29.91,NNW,347,4.0,7.0,65,0.00,,,0.00,42.00,VWS V14.01,2013-02-06 00:45:00,
2013-02-05 16:50:00,57.8,46.1,29.91,NW,316,2.0,8.0,65,0.00,,,0.00,37.00,VWS V14.01,2013-02-06 00:50:00,
2013-02-05 16:55:00,57.5,46.2,29.91,NW,325,6.0,9.0,66,0.00,,,0.00,39.00,VWS V14.01,2013-02-06 00:55:00,
2013-02-05 17:00:00,57.3,46.0,29.91,NNW,330,7.0,11.0,66,0.00,,,0.00,37.00,VWS V14.01,2013-02-06 01:00:00,
2013-02-05 17:05:00,57.0,45.8,29.91,NNW,329,9.0,13.0,66,0.00,,,0.00,35.00,VWS V14.01,2013-02-06 01:05:00,
2013-02-05 17:10:00,57.0,46.2,29.91,NNW,332,6.0,10.0,67,0.00,,,0.00,35.00,VWS V14.01,2013-02-06 01:10:00,
2013-02-05 17:15:00,56.9,46.1,29.91,NNW,332,6.0,10.0,67,0.00,,,0.00,23.00,VWS V14.01,2013-02-06 01:15:00,
2013-02-05 17:20:00,56.5,45.7,29.91,NW,323,10.0,13.0,67,0.00,,,0.00,12.00,VWS V14.01,2013-02-06 01:20:00,
2013-02-05 17:25:00,56.2,45.4,29.91,NNW,335,4.0,11.0,67,0.00,,,0.00,7.00,VWS V14.01,2013-02-06 01:25:00,
2013-02-05 17:30:00,55.9,45.5,29.91,NNW,343,15.0,15.0,68,0.00,,,0.00,0.00,VWS V14.01,2013-02-06 01:30:00,
2013-02-05 17:35:00,55.6,45.2,29.91,NW,316,4.0,14.0,68,0.00,,,0.00,0.00,VWS V14.01,2013-02-06 01:35:00,
2013-02-05 17:41:00,55.1,45.1,29.91,NW,316,4.0,8.0,69,0.00,,,0.00,0.00,VWS V14.01,2013-02-06 01:41:00,
2013-02-05 17:46:00,54.8,44.8,29.92,North,350,9.0,14.0,69,0.00,,,0.00,0.00,VWS V14.01,2013-02-06 01:46:00,
2013-02-05 17:51:00,54.5,44.5,29.92,NNW,339,13.0,13.0,69,0.00,,,0.00,0.00,VWS V14.01,2013-02-06 01:51:00,
2013-02-05 17:56:00,54.2,44.6,29.92,NW,316,9.0,14.0,70,0.00,,,0.00,0.00,VWS V14.01,2013-02-06 01:56:00,
2013-02-05 18:01:00,53.9,44.3,29.92,NW,312,7.0,13.0,70,0.00,,,0.00,0.00,VWS V14.01,2013-02-06 02:01:00,
2013-02-05 18:06:00,53.6,44.1,29.92,NNW,329,2.0,11.0,70,0.00,,,0.00,0.00,VWS V14.01,2013-02-06 02:06:00,
2013-02-05 18:11:00,53.5,44.0,29.92,WNW,302,10.0,17.0,70,0.00,,,0.00,0.00,VWS V14.01,2013-02-06 02:11:00,
2013-02-05 18:16:00,53.3,43.4,29.92,NNW,330,11.0,15.0,69,0.00,,,0.00,0.00,VWS V14.01,2013-02-06 02:16:00,
2013-02-05 18:21:00,53.2,43.3,29.92,NNW,347,7.0,14.0,69,0.00,,,0.00,0.00,VWS V14.01,2013-02-06 02:21:00,
2013-02-05 18:26:00,53.1,43.2,29.92,NW,318,2.0,14.0,69,0.00,,,0.00,0.00,VWS V14.01,2013-02-06 02:26:00,
2013-02-05 18:31:00,53.1,43.2,29.93,NW,305,8.0,15.0,69,0.00,,,0.00,0.00,VWS V14.01,2013-02-06 02:31:00,
2013-02-05 18:36:00,52.9,43.0,29.93,NW,309,11.0,13.0,69,0.00,,,0.00,0.00,VWS V14.01,2013-02-06 02:36:00,
2013-02-05 18:41:00,52.8,42.9,29.93,NW,305,8.0,13.0,69,0.00,,,0.00,0.00,VWS V14.01,2013-02-06 02:41:00,
2013-02-05 18:46:00,52.6,42.7,29.93,NNW,337,7.0,11.0,69,0.00,,,0.00,0.00,VWS V14.01,2013-02-06 02:46:00,
2013-02-05 18:51:00,52.5,43.0,29.93,NW,316,8.0,13.0,70,0.00,,,0.00,0.00,VWS V14.01,2013-02-06 02:51:00,
2013-02-05 18:56:00,52.3,42.8,29.93,WNW,301,13.0,14.0,70,0.00,,,0.00,0.00,VWS V14.01,2013-02-06 02:56:00,
2013-02-05 19:01:00,52.2,42.7,29.94,NNW,346,7.0,20.0,70,0.00,,,0.00,0.00,VWS V14.01,2013-02-06 03:01:00,
2013-02-05 19:06:00,52.0,42.2,29.94,North,0,7.0,13.0,69,0.00,,,0.00,0.00,VWS V14.01,2013-02-06 03:06:00,
2013-02-05 19:11:00,51.9,42.1,29.94,NW,322,4.0,17.0,69,0.00,,,0.00,0.00,VWS V14.01,2013-02-06 03:11:00,
2013-02-05 19:16:00,51.7,41.9,29.94,NW,320,10.0,15.0,69,0.00,,,0.00,0.00,VWS V14.01,2013-02-06 03:16:00,
2013-02-05 19:21:00,51.6,41.8,29.94,NW,323,14.0,15.0,69,0.00,,,0.00,0.00,VWS V14.01,2013-02-06 03:21:00,
2013-02-05 19:26:00,51.6,41.8,29.94,NNW,333,6.0,15.0,69,0.00,,,0.00,0.00,VWS V14.01,2013-02-06 03:26:00,
2013-02-05 19:31:00,51.3,41.9,29.95,NNW,329,4.0,11.0,70,0.00,,,0.00,0.00,VWS V14.01,2013-02-06 03:31:00,
2013-02-05 19:36:00,51.1,41.7,29.95,WNW,298,7.0,16.0,70,0.00,,,0.00,0.00,VWS V14.01,2013-02-06 03:36:00,
2013-02-05 19:41:00,51.0,41.6,29.95,NW,309,9.0,14.0,70,0.00,,,0.00,0.00,VWS V14.01,2013-02-06 03:41:00,
2013-02-05 19:46:00,50.8,41.4,29.95,NW,326,10.0,15.0,70,0.00,,,0.00,0.00,VWS V14.01,2013-02-06 03:46:00,
2013-02-05 19:51:00,50.7,41.3,29.95,NNW,328,10.0,14.0,70,0.00,,,0.00,0.00,VWS V14.01,2013-02-06 03:51:00,
2013-02-05 19:56:00,50.5,41.1,29.95,WNW,295,6.0,11.0,70,0.00,,,0.00,0.00,VWS V14.01,2013-02-06 03:56:00,
2013-02-05 20:01:00,50.4,41.0,29.96,WNW,298,9.0,14.0,70,0.00,,,0.00,0.00,VWS V14.01,2013-02-06 04:01:00,
2013-02-05 20:06:00,50.2,40.8,29.96,NW,309,1.0,13.0,70,0.00,,,0.00,0.00,VWS V14.01,2013-02-06 04:06:00,
2013-02-05 20:11:00,50.1,40.7,29.96,NNW,346,8.0,14.0,70,0.00,,,0.00,0.00,VWS V14.01,2013-02-06 04:11:00,
2013-02-05 20:16:00,49.9,40.5,29.96,NW,313,8.0,13.0,70,0.00,,,0.00,0.00,VWS V14.01,2013-02-06 04:16:00,
2013-02-05 20:21:00,49.8,40.4,29.96,NW,323,8.0,13.0,70,0.00,,,0.00,0.00,VWS V14.01,2013-02-06 04:21:00,
2013-02-05 20:26:00,49.6,40.2,29.96,NW,318,6.0,15.0,70,0.00,,,0.00,0.00,VWS V14.01,2013-02-06 04:26:00,
2013-02-05 20:31:00,49.5,40.1,29.96,NW,313,8.0,11.0,70,0.00,,,0.00,0.00,VWS V14.01,2013-02-06 04:31:00,
2013-02-05 20:36:00,49.2,40.2,29.96,NNW,337,8.0,13.0,71,0.00,,,0.00,0.00,VWS V14.01,2013-02-06 04:36:00,
2013-02-05 20:41:00,49.1,40.1,29.96,WNW,292,11.0,13.0,71,0.00,,,0.00,0.00,VWS V14.01,2013-02-06 04:41:00,
2013-02-05 20:46:00,48.9,39.9,29.96,NW,322,6.0,11.0,71,0.00,,,0.00,0.00,VWS V14.01,2013-02-06 04:46:00,
2013-02-05 20:51:00,48.8,39.8,29.96,NNW,337,1.0,10.0,71,0.00,,,0.00,0.00,VWS V14.01,2013-02-06 04:51:00,
2013-02-05 20:56:00,48.8,39.8,29.96,NW,312,2.0,9.0,71,0.00,,,0.00,0.00,VWS V14.01,2013-02-06 04:56:00,
2013-02-05 21:00:00,48.6,39.6,29.96,NW,326,1.0,4.0,71,0.00,,,0.00,0.00,VWS V14.01,2013-02-06 05:00:00,
2013-02-05 21:05:00,48.3,39.7,29.96,NNW,329,0.0,2.0,72,0.00,,,0.00,0.00,VWS V14.01,2013-02-06 05:05:00,
2013-02-05 21:10:00,48.2,39.6,29.96,NNW,329,0.0,2.0,72,0.00,,,0.00,0.00,VWS V14.01,2013-02-06 05:10:00,
2013-02-05 21:15:00,48.0,39.4,29.96,NNW,329,0.0,1.0,72,0.00,,,0.00,0.00,VWS V14.01,2013-02-06 05:15:00,
2013-02-05 21:20:00,47.7,39.1,29.96,NNW,329,0.0,0.0,72,0.00,,,0.00,0.00,VWS V14.01,2013-02-06 05:20:00,
2013-02-05 21:25:00,47.6,39.0,29.96,NNW,328,4.0,6.0,72,0.00,,,0.00,0.00,VWS V14.01,2013-02-06 05:25:00,
2013-02-05 21:30:00,47.6,39.4,29.97,NNW,328,4.0,4.0,73,0.00,,,0.00,0.00,VWS V14.01,2013-02-06 05:30:00,
2013-02-05 21:35:00,47.4,39.2,29.97,NW,325,4.0,4.0,73,0.00,,,0.00,0.00,VWS V14.01,2013-02-06 05:35:00,
2013-02-05 21:40:00,47.3,39.1,29.97,NW,325,0.0,4.0,73,0.00,,,0.00,0.00,VWS V14.01,2013-02-06 05:40:00,
2013-02-05 21:45:00,47.0,38.8,29.97,NW,325,2.0,2.0,73,0.00,,,0.00,0.00,VWS V14.01,2013-02-06 05:45:00,
2013-02-05 21:50:00,46.8,38.6,29.97,NW,325,1.0,1.0,73,0.00,,,0.00,0.00,VWS V14.01,2013-02-06 05:50:00,
2013-02-05 21:55:00,46.5,38.3,29.97,NW,325,0.0,2.0,73,0.00,,,0.00,0.00,VWS V14.01,2013-02-06 05:55:00,
2013-02-05 22:00:00,46.4,38.6,29.97,NW,325,2.0,2.0,74,0.00,,,0.00,0.00,VWS V14.01,2013-02-06 06:00:00,
2013-02-05 22:05:00,46.1,38.3,29.97,NW,325,1.0,4.0,74,0.00,,,0.00,0.00,VWS V14.01,2013-02-06 06:05:00,
2013-02-05 22:10:00,46.1,38.3,29.97,NW,325,2.0,4.0,74,0.00,,,0.00,0.00,VWS V14.01,2013-02-06 06:10:00,
2013-02-05 22:15:00,46.0,38.5,29.98,NW,325,0.0,4.0,75,0.00,,,0.00,0.00,VWS V14.01,2013-02-06 06:15:00,
2013-02-05 22:20:00,45.8,38.3,29.98,NW,325,1.0,2.0,75,0.00,,,0.00,0.00,VWS V14.01,2013-02-06 06:20:00,
2013-02-05 22:25:00,45.8,38.3,29.98,NW,326,1.0,6.0,75,0.00,,,0.00,0.00,VWS V14.01,2013-02-06 06:25:00,
2013-02-05 22:30:00,45.7,38.2,29.98,NNW,329,6.0,6.0,75,0.00,,,0.00,0.00,VWS V14.01,2013-02-06 06:30:00,
2013-02-05 22:35:00,45.5,38.4,29.98,NW,316,4.0,6.0,76,0.00,,,0.00,0.00,VWS V14.01,2013-02-06 06:35:00,
2013-02-05 22:40:00,45.5,38.4,29.98,NW,319,1.0,4.0,76,0.00,,,0.00,0.00,VWS V14.01,2013-02-06 06:40:00,
2013-02-05 22:45:00,45.2,38.1,29.98,NW,319,0.0,2.0,76,0.00,,,0.00,0.00,VWS V14.01,2013-02-06 06:45:00,
2013-02-05 22:50:00,45.1,38.0,29.98,NW,319,0.0,2.0,76,0.00,,,0.00,0.00,VWS V14.01,2013-02-06 06:50:00,
2013-02-05 22:55:00,44.9,37.8,29.98,NW,319,0.0,4.0,76,0.00,,,0.00,0.00,VWS V14.01,2013-02-06 06:55:00,
2013-02-05 23:00:00,44.9,37.8,29.98,NW,319,1.0,4.0,76,0.00,,,0.00,0.00,VWS V14.01,2013-02-06 07:00:00,
2013-02-05 23:05:00,44.9,37.8,29.98,NW,319,0.0,4.0,76,0.00,,,0.00,0.00,VWS V14.01,2013-02-06 07:05:00,
2013-02-05 23:10:00,44.9,37.8,29.98,NW,319,0.0,6.0,76,0.00,,,0.00,0.00,VWS V14.01,2013-02-06 07:10:00,
2013-02-05 23:15:00,44.8,38.0,29.98,NW,319,0.0,4.0,77,0.00,,,0.00,0.00,VWS V14.01,2013-02-06 07:15:00,
2013-02-05 23:20:00,44.6,37.8,29.98,NW,319,0.0,2.0,77,0.00,,,0.00,0.00,VWS V14.01,2013-02-06 07:20:00,
2013-02-05 23:25:00,44.5,37.8,29.98,NW,320,1.0,6.0,77,0.00,,,0.00,0.00,VWS V14.01,2013-02-06 07:25:00,
2013-02-05 23:30:00,44.6,37.8,29.98,NNW,339,0.0,6.0,77,0.00,,,0.00,0.00,VWS V14.01,2013-02-06 07:30:00,
2013-02-05 23:35:00,44.5,37.8,29.98,NW,311,4.0,4.0,77,0.00,,,0.00,0.00,VWS V14.01,2013-02-06 07:35:00,
2013-02-05 23:40:00,44.5,37.8,29.98,NW,312,1.0,4.0,77,0.00,,,0.00,0.00,VWS V14.01,2013-02-06 07:40:00,
2013-02-05 23:45:00,44.5,38.1,29.99,NW,318,6.0,9.0,78,0.00,,,0.00,0.00,VWS V14.01,2013-02-06 07:45:00,
2013-02-05 23:50:00,44.5,38.1,29.99,NW,309,1.0,8.0,78,0.00,,,0.00,0.00,VWS V14.01,2013-02-06 07:50:00,
2013-02-05 23:55:00,44.5,38.1,29.99,NW,320,2.0,7.0,78,0.00,,,0.00,0.00,VWS V14.01,2013-02-06 07:55:00,